Location: DaVinci Observatory
(43.1080°N, 78.6453°W)
Time: 07:10:54
(UTC-04:00)

Tiangong 1 - Pass Details

Date: 10 October 2017
Orbit: 294 x 321 km, 42.8° (Epoch: 17 October)

Event Time Altitude Azimuth Distance (km) Brightness Sun altitude
Rises 19:19:46 0° 265° (W) 2,043 7.3 -8.1°
Reaches altitude 10° 19:21:46 10° 264° (W) 1,209 5.3 -8.5°
Maximum altitude 19:24:28 84° 175° (S) 317 0.6 -9.0°
Enters shadow 19:26:34 15° 89° (E) 959 2.4 -9.4°
